TimeEST,TemperatureF,Dew PointF,Humidity,Sea Level PressureIn,VisibilityMPH,Wind Direction,Wind SpeedMPH,Gust SpeedMPH,PrecipitationIn,Events,Conditions,WindDirDegrees,DateUTC
12:53 AM,19.0,12.9,77,30.66,10.0,Calm,Calm,-,N/A,,Clear,0,2013-11-21 05:53:00
1:53 AM,17.1,12.0,81,30.68,10.0,Calm,Calm,-,N/A,,Clear,0,2013-11-21 06:53:00
2:53 AM,17.1,12.9,84,30.66,10.0,Calm,Calm,-,N/A,,Clear,0,2013-11-21 07:53:00
3:53 AM,17.1,10.9,77,30.66,10.0,Calm,Calm,-,N/A,,Clear,0,2013-11-21 08:53:00
4:53 AM,17.1,10.9,77,30.66,10.0,Calm,Calm,-,N/A,,Clear,0,2013-11-21 09:53:00
5:53 AM,16.0,10.9,81,30.67,10.0,Calm,Calm,-,N/A,,Clear,0,2013-11-21 10:53:00
6:53 AM,16.0,10.9,81,30.67,10.0,Calm,Calm,-,N/A,,Clear,0,2013-11-21 11:53:00
7:53 AM,18.0,12.9,81,30.66,10.0,Calm,Calm,-,N/A,,Clear,0,2013-11-21 12:53:00
8:53 AM,21.9,16.0,78,30.65,10.0,Calm,Calm,-,N/A,,Clear,0,2013-11-21 13:53:00
9:53 AM,27.0,18.0,69,30.64,10.0,Calm,Calm,-,N/A,,Clear,0,2013-11-21 14:53:00
10:53 AM,32.0,19.0,59,30.61,10.0,Calm,Calm,-,N/A,,Clear,0,2013-11-21 15:53:00
12:53 PM,42.1,10.9,28,30.49,10.0,SW,3.5,-,N/A,,Unknown,220,2013-11-21 17:53:00
1:53 PM,42.1,12.0,29,30.45,10.0,WSW,5.8,-,N/A,,Clear,250,2013-11-21 18:53:00
2:53 PM,42.1,12.0,29,30.44,10.0,WSW,3.5,-,N/A,,Clear,240,2013-11-21 19:53:00
3:53 PM,39.0,16.0,39,30.44,10.0,South,3.5,-,N/A,,Clear,170,2013-11-21 20:53:00
4:53 PM,33.1,19.9,59,30.43,10.0,Calm,Calm,-,N/A,,Clear,0,2013-11-21 21:53:00
5:53 PM,32.0,19.9,61,30.43,10.0,Calm,Calm,-,N/A,,Clear,0,2013-11-21 22:53:00
6:53 PM,27.0,19.9,75,30.43,10.0,Calm,Calm,-,N/A,,Mostly Cloudy,0,2013-11-21 23:53:00
7:53 PM,28.9,19.0,67,30.41,10.0,Calm,Calm,-,N/A,,Clear,0,2013-11-22 00:53:00
8:53 PM,30.9,21.0,67,30.40,10.0,Calm,Calm,-,N/A,,Clear,0,2013-11-22 01:53:00
9:53 PM,32.0,21.9,66,30.38,10.0,Calm,Calm,-,N/A,,Overcast,0,2013-11-22 02:53:00
10:53 PM,33.1,21.0,61,30.36,10.0,Calm,Calm,-,N/A,,Overcast,0,2013-11-22 03:53:00
11:53 PM,32.0,21.0,64,30.34,10.0,Calm,Calm,-,N/A,,Mostly Cloudy,0,2013-11-22 04:53:00